Weather History for KCEC - February, 2013

Change the Weather History Date:

Monday, February 25, 2013

  Actual Average Record
Temperature  
Mean Temperature 43 °F 48 °F  
Max Temperature 51 °F 54 °F 75 °F (1992)
Min Temperature 35 °F 42 °F 30 °F (1962)
Degree Days  
Heating Degree Days 22 17  
Month to date heating degree days 472 439  
Since 1 July heating degree days 3176 3125  
Cooling Degree Days 0 0  
Month to date cooling degree days 0 0  
Year to date cooling degree days 0 0  
Moisture  
Dew Point 40 °F    
Average Humidity 86    
Maximum Humidity 100    
Minimum Humidity 71    
Precipitation  
Precipitation 0.15 in 0.30 in 1.55 in (1956)
Month to date precipitation 2.45 7.97  
Year to date precipitation 7.65 18.36  
Since 1 July precipitation 41.35  
Snow  
Snow 0.00 in - - ()
Month to date snowfall 0.0  
Since 1 July snowfall 0.0  
Snow Depth 0.00 in    
Sea Level Pressure  
Sea Level Pressure 30.37 in    
Wind  
Wind Speed 8 mph (NNE)    
Max Wind Speed 16 mph    
Max Gust Speed 24 mph    
Visibility 7 miles    
Events Rain    
T = Trace of Precipitation, MM = Missing Value Source: NWS Daily Summary

Daily Weather History Graph

Daily Weather History Graph

Search for Another Location

Airport or City:

Trip Planner

Search our weather history database for the weather conditions in past years. The results will help you decide how hot, cold, wet, or windy it might be!

Date:

Astronomy

Feb. 25, 2013 Rise Set
Actual Time 6:57 AM PST 6:02 PM PST
Civil Twilight 6:29 AM PST 6:31 PM PST
Nautical Twilight 5:57 AM PST 7:03 PM PST
Astronomical Twilight 5:25 AM PST 7:35 PM PST
Moon 6:23 PM PST (2/25) 6:30 AM PST (2/25)
Length of Visible Light 12h 01m
Length of Day
11h 05m
Full, 100% of the Moon is Illuminated
Feb 25
Full
Feb 25
Full
Mar 4
Last Quarter
Mar 11
New
Mar 19
First Quarter

Hourly Weather History & Observations

Time (PST) Temp. Windchill Dew Point Humidity Pressure Visibility Wind Dir Wind Speed Gust Speed Precip Events Conditions
12:12 AM 42.8 °F 40.1 °F 39.2 °F 87% 30.32 in 10.0 mi ESE 4.6 mph - N/A   Mostly Cloudy
12:56 AM 46.0 °F 41.4 °F 41.0 °F 83% 30.31 in 10.0 mi SSE 9.2 mph - N/A   Overcast
1:56 AM 45.0 °F 39.7 °F 39.9 °F 82% 30.31 in 9.0 mi SSE 10.4 mph - 0.01 in Rain Light Rain
2:56 AM 44.1 °F 37.1 °F 39.0 °F 82% 30.31 in 5.0 mi SSE 15.0 mph - 0.03 in Rain Light Rain
3:05 AM 42.8 °F 35.4 °F 39.2 °F 87% 30.30 in 5.0 mi SSE 15.0 mph - 0.00 in Rain Light Rain
3:35 AM 42.8 °F 35.8 °F 39.2 °F 87% 30.31 in 5.0 mi South 13.8 mph - 0.01 in Rain Light Rain
3:44 AM 42.8 °F 35.4 °F 39.2 °F 87% 30.31 in 4.0 mi SSE 15.0 mph - 0.03 in Rain Rain
4:05 AM 42.8 °F 36.2 °F 41.0 °F 93% 30.31 in 5.0 mi SSE 12.7 mph - 0.01 in Rain Rain
4:38 AM 42.8 °F 38.0 °F 41.0 °F 93% 30.33 in 5.0 mi SSE 8.1 mph - 0.04 in Rain Light Rain
4:56 AM 43.0 °F 38.8 °F 42.1 °F 97% 30.34 in 8.0 mi South 6.9 mph - 0.05 in Rain Light Rain
5:17 AM 42.8 °F 40.1 °F 42.8 °F 100% 30.34 in 10.0 mi SE 4.6 mph - 0.00 in   Overcast
5:54 AM 44.6 °F 42.2 °F 42.8 °F 93% 30.35 in 10.0 mi East 4.6 mph - 0.00 in   Overcast
5:56 AM 44.1 °F 42.5 °F 43.0 °F 96% 30.36 in 10.0 mi ENE 3.5 mph - 0.00 in   Overcast
6:56 AM 42.1 °F - 41.0 °F 96% 30.37 in 10.0 mi Calm Calm - N/A   Mostly Cloudy
7:09 AM 41.0 °F - 39.2 °F 93% 30.37 in 1.8 mi Calm Calm - N/A   Scattered Clouds
7:18 AM 41.0 °F - 39.2 °F 93% 30.37 in 3.0 mi Calm Calm - N/A   Partly Cloudy
7:32 AM 39.2 °F - 39.2 °F 100% 30.38 in 1.5 mi Calm Calm - N/A   Partly Cloudy
7:40 AM 41.0 °F - 39.2 °F 93% 30.38 in 1.2 mi Calm Calm - N/A   Partly Cloudy
7:43 AM 41.0 °F - 39.2 °F 93% 30.38 in 2.0 mi Calm Calm - N/A   Partly Cloudy
7:51 AM 42.8 °F - 42.8 °F 100% 30.39 in 5.0 mi Calm Calm - N/A   Mostly Cloudy
7:56 AM 43.0 °F - 43.0 °F 100% 30.40 in 8.0 mi Calm Calm - N/A   Mostly Cloudy
8:56 AM 46.0 °F 44.8 °F 44.1 °F 93% 30.41 in 10.0 mi NE 3.5 mph - 0.00 in   Partly Cloudy
9:56 AM 46.9 °F - 41.0 °F 80% 30.42 in 9.0 mi NNW 4.6 mph - N/A   Mostly Cloudy
10:56 AM 50.0 °F - 41.0 °F 71% 30.42 in 10.0 mi NW 5.8 mph - N/A   Clear
11:56 AM 50.0 °F - 41.0 °F 71% 30.43 in 10.0 mi Variable 6.9 mph - N/A   Partly Cloudy
12:56 PM 50.0 °F - 41.0 °F 71% 30.41 in 10.0 mi WNW 8.1 mph - N/A   Clear
1:56 PM 50.0 °F - 41.0 °F 71% 30.41 in 10.0 mi WNW 11.5 mph - N/A   Clear
2:56 PM 50.0 °F - 41.0 °F 71% 30.41 in 10.0 mi NW 12.7 mph - N/A   Clear
3:56 PM 48.9 °F - 41.0 °F 74% 30.40 in 10.0 mi NW 10.4 mph - N/A   Mostly Cloudy
4:56 PM 48.0 °F - 39.0 °F 71% 30.39 in 8.0 mi NW 11.5 mph - N/A   Clear
5:56 PM 45.0 °F 39.3 °F 37.9 °F 76% 30.39 in 8.0 mi NNW 11.5 mph - N/A   Clear
6:56 PM 45.0 °F 38.2 °F 37.0 °F 74% 30.40 in 9.0 mi NNW 15.0 mph 24.2 mph N/A   Clear
7:56 PM 44.1 °F 38.1 °F 37.0 °F 76% 30.39 in 8.0 mi NNW 11.5 mph - N/A   Clear
8:56 PM 43.0 °F 38.2 °F 36.0 °F 76% 30.41 in 7.0 mi NNW 8.1 mph - N/A   Clear
9:20 PM 42.8 °F 40.1 °F 35.6 °F 76% 30.41 in 6.0 mi North 4.6 mph - N/A   Haze
9:56 PM 39.9 °F 36.7 °F 35.1 °F 83% 30.42 in 7.0 mi North 4.6 mph - N/A   Mostly Cloudy
10:19 PM 39.2 °F 35.9 °F 33.8 °F 81% 30.41 in 10.0 mi NE 4.6 mph - N/A   Scattered Clouds
10:56 PM 37.9 °F 35.5 °F 34.0 °F 86% 30.42 in 10.0 mi NE 3.5 mph - N/A   Clear
11:56 PM 36.0 °F 32.1 °F 33.1 °F 89% 30.41 in 10.0 mi NNE 4.6 mph - N/A   Clear